Weather History for Lumberton, NC

Change the Weather History Date:

Monday, March 24, 2014

  Actual Average Record
Temperature  
Mean Temperature 45 °F 56 °F  
Max Temperature 54 °F 69 °F 84 °F (2007)
Min Temperature 36 °F 44 °F 28 °F (2004)
Degree Days  
Heating Degree Days 20 9  
Month to date heating degree days 414 290  
Since 1 July heating degree days 2710 2520  
Cooling Degree Days 0 0  
Month to date cooling degree days 0 0  
Year to date cooling degree days 1 3  
Moisture  
Dew Point 32 °F    
Average Humidity 64    
Maximum Humidity 92    
Minimum Humidity 35    
Precipitation  
Precipitation 0.00 in 0.09 in 0.72 in (2013)
Month to date precipitation 2.26 2.54  
Year to date precipitation 8.33 8.41  
Sea Level Pressure  
Sea Level Pressure 30.19 in    
Wind  
Wind Speed 6 mph (NE)    
Max Wind Speed 16 mph    
Max Gust Speed 22 mph    
Visibility 8 miles    
Events      
T = Trace of Precipitation, MM = Missing Value Source: NWS Daily Summary

Daily Weather History Graph

Daily Weather History Graph

Search for Another Location

Airport:

Trip Planner

Search our weather history database for the weather conditions in past years. The results will help you decide how hot, cold, wet, or windy it might be!

Date:

Astronomy

Mar. 24, 2014 Rise Set
Actual Time 7:14 AM EDT 7:31 PM EDT
Civil Twilight 6:49 AM EDT 7:56 PM EDT
Nautical Twilight 6:19 AM EDT 8:25 PM EDT
Astronomical Twilight 5:49 AM EDT 8:55 PM EDT
Moon 2:29 AM EDT (3/24) 1:07 PM EDT (3/24)
Length of Visible Light 13h 07m
Length of Day
12h 16m
Last Quarter, 43% of the Moon is Illuminated
Mar 24
Last Quarter
Mar 30
New
Apr 7
First Quarter
Apr 15
Full
Apr 22
Last Quarter

Hourly Weather History & Observations

Time (EDT) Temp. Windchill Dew Point Humidity Pressure Visibility Wind Dir Wind Speed Gust Speed Precip Events Conditions
12:06 AM 42.1 °F 37.7 °F 39.0 °F 89% 30.12 in 6.0 mi NNE 6.9 mph - N/A   Scattered Clouds
12:54 AM 39.9 °F 36.7 °F 37.0 °F 89% 30.14 in 5.0 mi North 4.6 mph - N/A   Clear
1:31 AM 41.0 °F 36.4 °F 39.0 °F 93% 30.15 in 4.0 mi North 6.9 mph - N/A   Mostly Cloudy
1:54 AM 42.1 °F 36.6 °F 39.0 °F 89% 30.16 in 5.0 mi NNE 9.2 mph - N/A   Overcast
2:14 AM 41.0 °F 35.8 °F 37.9 °F 89% 30.16 in 6.0 mi NNE 8.1 mph - N/A   Scattered Clouds
2:54 AM 39.9 °F 34.5 °F 37.0 °F 89% 30.16 in 5.0 mi NNE 8.1 mph - N/A   Clear
3:54 AM 39.0 °F 34.0 °F 36.0 °F 89% 30.17 in 5.0 mi NNE 6.9 mph - N/A   Clear
4:54 AM 37.9 °F 32.1 °F 35.1 °F 89% 30.18 in 4.0 mi NNE 8.1 mph - N/A   Clear
5:54 AM 36.0 °F 31.1 °F 34.0 °F 93% 30.21 in 4.0 mi North 5.8 mph - N/A   Clear
6:54 AM 36.0 °F 31.1 °F 34.0 °F 93% 30.23 in 3.0 mi North 5.8 mph - N/A   Partly Cloudy
7:15 AM 36.0 °F 30.3 °F 34.0 °F 93% 30.24 in 2.5 mi NNE 6.9 mph - N/A   Scattered Clouds
7:45 AM 36.0 °F 30.3 °F 34.0 °F 93% 30.24 in 4.0 mi North 6.9 mph - N/A   Clear
7:54 AM 37.0 °F 31.6 °F 34.0 °F 89% 30.25 in 5.0 mi North 6.9 mph - N/A   Clear
8:54 AM 39.0 °F 30.3 °F 30.0 °F 70% 30.26 in 10.0 mi NNE 16.1 mph - N/A   Clear
9:54 AM 42.1 °F 36.1 °F 33.1 °F 70% 30.27 in 10.0 mi NE 10.4 mph - N/A   Partly Cloudy
10:16 AM 43.0 °F 37.2 °F 33.1 °F 68% 30.27 in 10.0 mi NE 10.4 mph 18.4 mph N/A   Mostly Cloudy
10:24 AM 44.1 °F 38.6 °F 33.1 °F 65% 30.26 in 10.0 mi ENE 10.4 mph - N/A   Scattered Clouds
10:31 AM 44.1 °F 38.6 °F 33.1 °F 65% 30.27 in 10.0 mi NE 10.4 mph - N/A   Mostly Cloudy
10:54 AM 44.1 °F 38.1 °F 32.0 °F 63% 30.27 in 10.0 mi NNE 11.5 mph - N/A   Mostly Cloudy
11:11 AM 43.0 °F 36.8 °F 30.0 °F 60% 30.26 in 10.0 mi NNE 11.5 mph - N/A   Partly Cloudy
11:54 AM 46.0 °F 41.9 °F 30.9 °F 56% 30.26 in 10.0 mi ENE 8.1 mph - N/A   Partly Cloudy
12:54 PM 48.0 °F - 28.0 °F 46% 30.24 in 10.0 mi NE 6.9 mph - N/A   Clear
1:54 PM 50.0 °F - 24.1 °F 36% 30.20 in 10.0 mi Calm Calm - N/A   Clear
2:54 PM 52.0 °F - 27.0 °F 38% 30.17 in 10.0 mi Variable 3.5 mph - N/A   Clear
3:54 PM 52.0 °F - 26.1 °F 37% 30.15 in 10.0 mi ESE 5.8 mph - N/A   Clear
4:54 PM 52.0 °F - 24.1 °F 34% 30.13 in 10.0 mi Calm Calm - N/A   Clear
5:54 PM 52.0 °F - 26.1 °F 37% 30.12 in 10.0 mi North - - N/A   Clear
6:54 PM 50.0 °F - 27.0 °F 41% 30.11 in 10.0 mi South 3.5 mph - N/A   Clear
7:54 PM 45.0 °F - 30.0 °F 56% 30.11 in 10.0 mi Calm Calm - N/A   Clear
8:54 PM 39.9 °F - 34.0 °F 79% 30.12 in 10.0 mi Calm Calm - N/A   Clear
9:54 PM 44.1 °F 39.0 °F 33.1 °F 65% 30.13 in 10.0 mi SSE 9.2 mph - N/A   Clear
10:54 PM 41.0 °F 36.4 °F 32.0 °F 70% 30.12 in 10.0 mi ESE 6.9 mph - N/A   Clear
11:54 PM 41.0 °F 37.1 °F 33.1 °F 73% 30.11 in 10.0 mi ESE 5.8 mph - N/A   Clear